Location: Wingville
(42.9917°N, 90.4915°W)
Time: 20:47:28
(UTC+00:00)

Envisat - Visible Passes

Search period start: 22 January 2022 00:00
Search period end: 01 February 2022 00:00
Orbit: 764 x 766 km, 98.2° (Epoch: 22 January)

Date Brightness Start Highest point End Pass type
(mag) Time Alt. Az. Time Alt. Az. Time Alt. Az.
22 Jan 4.7 10:11:54 10° NE 10:16:22 30° E 10:20:49 10° SSE visible
22 Jan 3.6 11:50:50 10° N 11:55:22 33° WNW 11:59:53 10° SW visible
23 Jan 5.8 09:36:33 10° ENE 09:39:08 14° E 09:41:43 10° ESE visible
23 Jan 2.8 11:13:36 10° N 11:18:40 72° WNW 11:23:43 10° SSW visible
24 Jan 3.7 10:36:48 10° NNE 10:41:47 52° E 10:46:43 10° S visible
24 Jan 4.2 12:16:42 10° NNW 12:20:24 21° WNW 12:24:05 10° WSW visible
24 Jan 6.1 23:34:17 10° WSW 23:36:39 13° W 23:39:00 10° WNW visible
25 Jan 5.1 10:00:36 10° NE 10:04:42 24° E 10:08:46 10° SSE visible
25 Jan 3.3 11:39:05 10° N 11:43:51 42° WNW 11:48:36 10° SW visible
26 Jan 6.0 09:26:23 10° ENE 09:27:24 11° E 09:28:24 10° E visible
26 Jan 2.9 11:01:59 10° NNE 11:07:06 90° WSW 11:12:10 10° SSW visible
26 Jan 4.7 12:43:14 10° NNW 12:45:21 13° WNW 12:47:27 10° W visible
27 Jan 4.1 10:25:20 10° NNE 10:30:09 41° E 10:34:55 10° SSE visible
27 Jan 3.9 12:04:48 10° N 12:08:56 25° WNW 12:13:03 10° WSW visible
28 Jan 5.4 09:49:24 10° NE 09:52:59 19° E 09:56:34 10° SE visible
28 Jan 3.0 11:27:22 10° N 11:32:19 53° WNW 11:37:13 10° SSW visible
29 Jan 3.1 10:50:24 10° NNE 10:55:30 72° ESE 11:00:34 10° S visible
29 Jan 4.5 12:30:57 10° NNW 12:33:54 16° WNW 12:36:52 10° W visible
30 Jan 4.6 10:13:56 10° NNE 10:18:29 32° E 10:23:01 10° SSE visible
30 Jan 3.7 11:52:58 10° N 11:57:26 31° WNW 12:01:52 10° SW visible
31 Jan 5.7 09:38:24 10° NE 09:41:16 15° E 09:44:07 10° SE visible
31 Jan 2.9 11:15:42 10° N 11:20:45 67° WNW 11:25:47 10° SSW visible
